Terminal Aerodrome Forecast
Issued by NWS

Home | Current Version | Previous Version | Text Only | Print | Product List | Glossary On
Versions: 1 2 3 4 5 6 7 8 9 10 11 12 13 14 15 16 17 18 19 20 21 22 23 24 25 26
000
FTUS44 KOUN 191551 AAB
TAFPNC
TAF AMD
KPNC 191551Z 1916/2012 13008KT 6SM BR SCT004
      TEMPO 1916/1918 4SM BR
     FM191900 15008KT P6SM SCT035=

USA.gov is the U.S. government's official web portal to all federal, state and local government web resources and services.